Location: Izdebno
(52.6670°N, 16.2170°E)
Time: 03:07:24
(UTC+02:00)

SR - Pass Details

Date: 26 February 2024
Orbit: 577 x 862 km, 66.7° (Epoch: 22 April)

Event Time Altitude Azimuth Distance (km) Brightness Sun altitude
Rises 20:20:12 0° 311° (NW) 3,352 ? -26.5°
Reaches altitude 10° 20:23:20 10° 327° (NNW) 2,371 ? -27.0°
Maximum altitude 20:27:23 21° 15° (NNE) 1,677 ? -27.5°
Enters shadow 20:27:48 21° 22° (NNE) 1,678 ? -27.6°
Drops below altitude 10° 20:31:13 10° 64° (ENE) 2,225 - -28.1°
Sets 20:33:56 0° 80° (E) 3,052 - -28.4°
